Preview of NWS' New Version of Forecast
This preview is not operational and should not be used for support decisions.

Regional Weather Roundup (RWR)

Issued by National Weather Service (NWS)

                            
000
ASUS42 KTBW 201418
RWRFL 
FLORIDA REGIONAL WEATHER ROUNDUP
NATIONAL WEATHER SERVICE TAMPA BAY RUSKIN FL
1000 AM EDT SAT JUL 20 2019

NOTE: "FAIR" INDICATES FEW OR NO CLOUDS BELOW 12,000 FEET WITH NO
SIGNIFICANT WEATHER AND/OR OBSTRUCTIONS TO VISIBILITY.

FLZ001>010-012>015-112-114-115-201500-
PANHANDLE FLORIDA
  
CITY           SKY/WX    TMP DP  RH WIND       PRES   REMARKS
PENSACOLA      CLOUDY    79  75  87 W9        30.10R THUNDER          
PENSACOLA NAS  CLOUDY    78  74  87 S3        30.10R                  
MILTON NAS     PTSUNNY   81  77  88 E5        30.08F                  
CRESTVIEW      FAIR      80  75  84 VRB6      30.11S                  
DUKE FIELD     PTSUNNY   79  73  83 S13       30.10R                  
VALPARAISO     LGT RAIN  76  74  95 S8        30.09S                  
MARY ESTHER    PTSUNNY   76  73  90 W6        30.09                   
TRI COUNTY     FAIR      81  75  82 CALM      30.11S                  
PANAMA CITY    PTSUNNY   78  73  84 CALM      30.11R                  
TYNDALL AFB    LGT RAIN  75  72  88 SW15      30.10F                  
APALACHICOLA   LGT RAIN  77  71  82 S5        30.09F                  

STATION/POSITION SKY/WX   TEMP    WIND        PRES    WAVE   SWELL
                          AIR SEA DIR/SP/G            HT/PER HT/PER
                          (F)     (DEG/KT/KT) (MB)    (FT/S) (FT/S)
30.1N   87.6W              79 85  250/ 12/ 14 1018.8
29.2N   88.2W              79 86   10/ 16/ 19 1019.1
28.8N   86.0W                 86  150/ 16/ 25 1018.3F   1/ 7   2/ 7
PANAMA CITY BEAC           79 86  120/  6/  8 1019.9R
TOWER C                    80      30/  4/  5 1019.4R
28.5N   84.5W              81     120/ 16/ 19 1019.3

$$
FLZ011-016>038-118-127-128-134-139-239-201500-
NORTH FLORIDA
  
CITY           SKY/WX    TMP DP  RH WIND       PRES   REMARKS
MARIANNA       FAIR      81  76  84 SE5       30.10S                  
TALLAHASSEE    FAIR      83  76  79 VRB5      30.10F                  
PERRY          FAIR      82  74  78 SE3       30.13S                  
LIVE OAK       SUNNY     81  73  78 CALM      30.12S                  
CROSS CITY     FAIR      84  74  71 SE5       30.11S                  
LAKE CITY      FAIR      81  72  74 CALM      30.13R                  
GAINESVILLE    FAIR      82  74  76 VRB3      30.14S                  
WILLISTON      FAIR      82  74  77 CALM      30.11F                  
PALATKA        FAIR      84  75  74 CALM      30.12S                  
MAYPORT NAS    FAIR      84  76  76 NE6       30.11S                  
JACKSONVILLE   FAIR      83  75  77 S3        30.11R                  
JAX NAS        FAIR      83  73  72 S5        30.12R                  
JAX CECIL      SUNNY     88  75  66 S5        30.12R HX  97           
FERNANDINA BEA FAIR      83  75  77 CALM      30.11S                  
ST AUGUSTINE   FAIR      84  77  79 E6        30.12S                  
PALM COAST     SUNNY     84  73  70 CALM      30.11S                  

STATION/POSITION SKY/WX   TEMP    WIND        PRES    WAVE   SWELL
                          AIR SEA DIR/SP/G            HT/PER HT/PER
                          (F)     (DEG/KT/KT) (MB)    (FT/S) (FT/S)
SHELL POINT      NOT AVBL
KEATON BEACH               82      80/  2/  2 1019.8R
CEDAR KEY                  81     120/  8/  9 1019.8R
FERNANDINA                 89 85  100/  2/  5 1020.2F
30.7N   81.3W                 83                N/A     2/ 8
MAYPORT                    81 84   60/  5/  6 1019.9F
31.4N   80.9W              81 84  270/  4/  6 1019.5R   2/ 9   2/ 9
ST AUGUSTINE               81 76  100/  2/  2 1019.8S

$$
FLZ040-043>046-052-053-057-058-063-144-201500-
INTERIOR CENTRAL FLORIDA
  
CITY           SKY/WX    TMP DP  RH WIND       PRES   REMARKS
OCALA          FAIR      83  74  74 VRB5      30.12S                  
LEESBURG       FAIR      84  76  76 VRB3      30.12S                  
SANFORD        FAIR      85  75  72 SE7       30.12R                  
ORLANDO EXEC   FAIR      86  73  65 S7        30.12R                  
ORLANDO INTL   FAIR      85  73  67 S8        30.12R                  
KISSIMMEE      FAIR      85  76  74 SE9       30.13R                  
WINTER HAVEN   FAIR      86  75  69 S6        30.12S HX  95           
LAKELAND       MOSUNNY   84  75  74 SE8       30.11S                  
BARTOW         PTSUNNY   84  77  79 SE7       30.11R                  
SEBRING        FAIR      86  76  71 SE7       30.11S HX  96           
OKEECHOBEE     FAIR      84  77  79 SE6       30.10S                  

$$
FLZ041-047-054-059-064-141-147-201500-
EAST CENTRAL FLORIDA
  
CITY           SKY/WX    TMP DP  RH WIND       PRES   REMARKS
ORMOND BEACH   SUNNY     84  75  74 CALM      30.11S                  
DAYTONA BEACH  FAIR      85  76  74 SE5       30.12R                  
DELAND         FAIR      84  75  74 S6        30.12R                  
NEW SMYRNA BEA SUNNY     84  75  74 E6        30.12S                  
JFK SPACE CTR  SUNNY     82  68  63 CALM      30.12R                  
TITUSVILLE     MOSUNNY   84  81  89 S8        30.13R HX  98           
CAPE CANAVERAL TSTM     N/A N/A N/A E5        30.12R                  
PATRICK AFB    TSTM      79  75  89 S12       30.13R                  
MELBOURNE      TSTM      78  74  87 CALM      30.13R VSB 3/4          
VERO BEACH     FAIR      81  76  84 NE6       30.12R                  
FT PIERCE      FAIR      86  76  71 CALM      30.10S HX  96           
STUART         MOSUNNY   84  73  70 SE6       30.11R                  

STATION/POSITION SKY/WX   TEMP    WIND        PRES    WAVE   SWELL
                          AIR SEA DIR/SP/G            HT/PER HT/PER
                          (F)     (DEG/KT/KT) (MB)    (FT/S) (FT/S)
28.5N   80.2W              82 84  280/  6/  8 1020.1R   2/ 9   2/ 9
28.9N   78.5W              85 86  170/ 10/ 12 1020.4R   3/ 9   2/ 9
TRIDENT PIER               81 82   CALM  /  3 1021.6R
28.4N   80.5W                 81                N/A     1/ 8
27.5N   80.2W                 83                N/A     1/ 8

$$
FLZ050-056-061-142-242-148-248-149-249-151-251-155-255-
160-260-201500-
WEST CENTRAL FLORIDA
  
CITY           SKY/WX    TMP DP  RH WIND       PRES   REMARKS
CRYSTAL RIVER  FAIR      82  73  74 E3        30.11S                  
INVERNESS      FAIR      82  81  94 SE3       30.12S HX  95           
BROOKSVILLE    FAIR      84  76  76 CALM      30.12R                  
CLEARWATER AIR FAIR      82  73  74 SE6       30.09S                  
ST PETE CLEARW FAIR      85  76  74 E8        30.09S                  
TAMPA INTL     FAIR      84  75  74 SE6       30.10S                  
TAMPA EXEC     FAIR      84  77  79 SE5       30.11S                  
PLANT CITY     FAIR     N/A N/A N/A MISG      30.13R                  
MACDILL AFB    FAIR      85  76  74 S8        30.10R                  
PETER O KNIGHT PTSUNNY   86  79  79 SE5       30.11R HX  99           
ST PETERSBURG  FAIR      84  76  76 SE9       30.08S                  
SARASOTA       FAIR      84  75  74 SE8       30.07S                  
VENICE         FAIR      86  77  74 SE9       30.10R HX  97           

STATION/POSITION SKY/WX   TEMP    WIND        PRES    WAVE   SWELL
                          AIR SEA DIR/SP/G            HT/PER HT/PER
                          (F)     (DEG/KT/KT) (MB)    (FT/S) (FT/S)
27.3N   84.2W                 86                N/A     2/ 4
CLEARWATER BEACH           82 87  120/  4/  7 1019.2R
MIDDLE TAMPA BAY           82     150/  8/ 10 1019.2R
VENICE                     84 86  120/  8/ 10 1018.9R

$$
FLZ066-069-070-075>078-162-262-165-265-201500-
SOUTHWEST FLORIDA AND KEYS
  
CITY           SKY/WX    TMP DP  RH WIND       PRES   REMARKS
PUNTA GORDA    FAIR      84  77  79 SE10      30.10S                  
FT MYERS       FAIR      84  76  76 E5        30.07S                  
SOUTHWEST INTL FAIR      85  76  74 SE7       30.08S                  
IMMOKALEE      FAIR      88  77  70 E6        30.06F HX 100           
MARATHON       FAIR      89  76  65 SE8       30.05R HX 100           
KEY WEST NAS   FAIR      90  76  63 E8        30.05R HX 101           
KEY WEST INTL  FAIR      87  75  67 SE7       30.05R HX  96           

STATION/POSITION SKY/WX   TEMP    WIND        PRES    WAVE   SWELL
                          AIR SEA DIR/SP/G            HT/PER HT/PER
                          (F)     (DEG/KT/KT) (MB)    (FT/S) (FT/S)
NAPLES                     84 86              1018.4R
26.0N   85.6W              85 85  120/  6/  8 1018.1R   2/ 5   2/ 5
DRY TORTUGAS               85     130/  9/ 10 1017.6R
SAND KEY                   85     100/  8/ 10 1016.7
SOMBRERO KEY               85     110/  9/ 11 1017.9
LONG KEY                   85                 1016.9

$$
FLZ067-068-071>074-168-172>174-201500-
SOUTHEAST FLORIDA 
  
CITY           SKY/WX    TMP DP  RH WIND       PRES   REMARKS
W PALM BEACH   PTSUNNY   83  74  74 E6        30.09F                  
BOCA RATON     MOSUNNY   84  75  74 SE5       30.09S                  
FT LAUDER-EXEC FAIR      82  77  84 NE3       30.08R                  
FT LAUDERDALE  FAIR      83  76  79 SE13      30.07R                  
POMPANO BEACH  PTSUNNY   83  74  74 NE6       30.08S                  
PEMBROKE PINES FAIR      86  76  71 E9        30.09R HX  96           
OPA LOCKA      FAIR      84  77  79 E5        30.08R                  
MIAMI          PTSUNNY   88  70  55 E13       30.07R THUNDER          
WEST KENDALL     N/A    N/A N/A N/A MISG      30.06S THUNDER          
HOMESTEAD      MOSUNNY   88  75  66 E10       30.05S HX  97           

STATION/POSITION SKY/WX   TEMP    WIND        PRES    WAVE   SWELL
                          AIR SEA DIR/SP/G            HT/PER HT/PER
                          (F)     (DEG/KT/KT) (MB)    (FT/S) (FT/S)
VIRGINIA KEY               85 88   90/  7/ 10 1018.0R
LAKE WORTH                 83 84  150/  3/  5 1020.1F
FOWEY ROCKS                83 85  130/ 15/ 15 1018.3R
SETTLEMENT POINT           86     120/  7/ 11 1019.4R

$$